User: anonymous
Location: Fiddletown
(38.4917°N, 120.6633°W)
Time: 16:03:36
(UTC-07:00)
Language:

Envisat - Orbit

View from above orbital plane
View from above orbital plane
View from above satellite
View from above satellite

Ground track
Ground track

The orbit data is extracted from the following two-line orbital elements,

1 27386U 02009A   14206.29029729  .00000024  00000-0  22248-4 0  3093
2 27386 098.3804 270.6987 0001277 110.6476 298.3821 14.37721377649050
Epoch (UTC): 25 July 2014 06:58:01
Eccentricity: 0.0001277
inclination: 98.3804°
perigee height: 765 km
apogee height: 767 km
right ascension of ascending node: 270.6987°
argument of perigee: 110.6476°
revolutions per day: 14.37721377
mean anomaly at epoch: 298.3821°
orbit number at epoch: 64905

The dashed part of the orbit path shows where the satellite is in the earth's shadow,  

DLR